| time (UTC) | temp F | wind direction | speed MPH | gust MPH | rain 1hr in | rain 24hr in | rain mn in | humidity % | barometer mb |
| 20260507120045 | 56 | 101 | 0.0 | 2.0 | 0.00 | 0.00 | 0.00 | 87 | 1016.0 |
| 20260507114542 | 56 | 109 | 0.0 | 3.0 | 0.00 | 0.00 | 0.00 | 87 | 1015.9 |
| 20260507113043 | 56 | 85 | 0.0 | 2.0 | 0.00 | 0.00 | 0.00 | 87 | 1015.8 |
| 20260507111538 | 56 | 72 | 1.0 | 3.0 | 0.00 | 0.00 | 0.00 | 87 | 1016.0 |
| 20260507110104 | 56 | 104 | 1.0 | 2.0 | 0.00 | 0.00 | 0.00 | 87 | 1016.0 |
| 20260507104543 | 57 | 98 | 2.0 | 3.0 | 0.00 | 0.00 | 0.00 | 87 | 1016.1 |
| 20260507103040 | 57 | 0 | 1.0 | 2.0 | 0.00 | 0.00 | 0.00 | 88 | 1016.3 |
| 20260507101537 | 57 | 81 | 1.0 | 4.0 | 0.00 | 0.00 | 0.00 | 87 | 1016.3 |
| 20260507100040 | 57 | 0 | 0.0 | 3.0 | 0.00 | 0.00 | 0.00 | 87 | 1016.2 |
| 20260507094554 | 58 | 0 | 1.0 | 3.0 | 0.00 | 0.00 | 0.00 | 86 | 1016.4 |
| 20260507093045 | 59 | 134 | 1.0 | 3.0 | 0.00 | 0.00 | 0.00 | 86 | 1016.5 |
| 20260507091545 | 60 | 0 | 0.0 | 2.0 | 0.00 | 0.00 | 0.00 | 85 | 1016.5 |
| 20260507090043 | 60 | 11 | 0.0 | 3.0 | 0.00 | 0.00 | 0.00 | 86 | 1016.7 |
| 20260507084540 | 60 | 44 | 1.0 | 3.0 | 0.00 | 0.00 | 0.00 | 86 | 1016.8 |
| 20260507083040 | 60 | 36 | 0.0 | 2.0 | 0.00 | 0.00 | 0.00 | 86 | 1017.0 |
| 20260507081544 | 61 | 0 | 0.0 | 3.0 | 0.00 | 0.00 | 0.00 | 86 | 1017.3 |
| 20260507080044 | 61 | 13 | 0.0 | 3.0 | 0.00 | 0.00 | 0.00 | 85 | 1017.4 |
| 20260507074543 | 61 | 0 | 1.0 | 4.0 | 0.00 | 0.00 | 0.00 | 85 | 1017.3 |
| 20260507073052 | 61 | 0 | 0.0 | 1.0 | 0.00 | 0.00 | 0.00 | 85 | 1017.3 |
| 20260507071542 | 62 | 294 | 0.0 | 2.0 | 0.00 | 0.00 | 0.00 | 85 | 1017.3 |
| 20260507070044 | 62 | 0 | 1.0 | 3.0 | 0.00 | 0.00 | 0.00 | 85 | 1017.4 |
| 20260507064552 | 62 | 0 | 0.0 | 4.0 | 0.00 | 0.00 | 0.00 | 85 | 1017.6 |
| 20260507063047 | 62 | 0 | 1.0 | 3.0 | 0.00 | 0.00 | 0.00 | 84 | 1017.5 |
| 20260507061540 | 62 | 0 | 1.0 | 3.0 | 0.00 | 0.00 | 0.00 | 84 | 1017.5 |
| 20260507060037 | 62 | 301 | 1.0 | 3.0 | 0.00 | 0.00 | 0.00 | 83 | 1017.6 |
| 20260507054544 | 62 | 254 | 2.0 | 4.0 | 0.00 | 0.00 | 0.00 | 83 | 1017.5 |
| 20260507053042 | 62 | 266 | 2.0 | 7.0 | 0.00 | 0.00 | 0.00 | 82 | 1017.6 |
| 20260507051539 | 63 | 268 | 2.0 | 7.0 | 0.00 | 0.00 | 0.00 | 83 | 1017.7 |
| 20260507050038 | 63 | 269 | 1.0 | 7.0 | 0.00 | 0.00 | 0.00 | 81 | 1017.6 |
| 20260507044541 | 64 | 269 | 0.0 | 6.0 | 0.00 | 0.00 | 0.00 | 79 | 1017.5 |
| 20260507043047 | 65 | 298 | 2.0 | 6.0 | 0.00 | 0.00 | 0.00 | 79 | 1017.2 |
| 20260507041545 | 63 | 263 | 2.0 | 8.0 | 0.00 | 0.00 | 0.00 | 81 | 1017.3 |
| 20260507040040 | 64 | 315 | 2.0 | 5.0 | 0.00 | 0.00 | 0.00 | 80 | 1017.1 |
| 20260507034544 | 64 | 290 | 2.0 | 6.0 | 0.00 | 0.00 | 0.00 | 80 | 1017.0 |
| 20260507033053 | 64 | 270 | 2.0 | 8.0 | 0.00 | 0.00 | 0.00 | 80 | 1016.8 |
| 20260507031543 | 64 | 287 | 2.0 | 9.0 | 0.00 | 0.00 | 0.00 | 80 | 1016.5 |
| 20260507030041 | 64 | 342 | 3.0 | 10.0 | 0.00 | 0.00 | 0.00 | 79 | 1016.5 |
| 20260507024551 | 64 | 309 | 5.0 | 11.0 | 0.00 | 0.00 | 0.00 | 78 | 1016.4 |
| 20260507023037 | 65 | 277 | 2.0 | 8.0 | 0.00 | 0.00 | 0.00 | 77 | 1016.3 |
| 20260507021544 | 65 | 278 | 4.0 | 10.0 | 0.00 | 0.00 | 0.00 | 76 | 1016.2 |
| 20260507020040 | 65 | 271 | 6.0 | 12.0 | 0.00 | 0.00 | 0.00 | 77 | 1016.1 |
| 20260507014538 | 66 | 273 | 3.0 | 11.0 | 0.00 | 0.00 | 0.00 | 75 | 1016.0 |
| 20260507013039 | 67 | 292 | 6.0 | 12.0 | 0.00 | 0.00 | 0.00 | 74 | 1016.0 |
| 20260507011539 | 67 | 265 | 8.0 | 13.0 | 0.00 | 0.00 | 0.00 | 72 | 1016.1 |
| 20260507010040 | 67 | 238 | 7.0 | 13.0 | 0.00 | 0.00 | 0.00 | 72 | 1016.0 |
| 20260507004544 | 68 | 280 | 6.0 | 11.0 | 0.00 | 0.00 | 0.00 | 70 | 1016.0 |
| 20260507003042 | 68 | 9 | 5.0 | 14.0 | 0.00 | 0.00 | 0.00 | 70 | 1015.9 |
| 20260507001603 | 68 | 268 | 6.0 | 15.0 | 0.00 | 0.00 | 0.00 | 71 | 1015.8 |
| 20260507000037 | 68 | 219 | 6.0 | 17.0 | 0.00 | 0.00 | 0.00 | 71 | 1015.8 |
| 20260506234547 | 67 | 307 | 8.0 | 15.0 | 0.00 | 0.00 | 0.00 | 71 | 1015.8 |
| 20260506233045 | 68 | 287 | 6.0 | 17.0 | 0.00 | 0.00 | 0.00 | 69 | 1015.9 |
| 20260506231537 | 68 | 288 | 8.0 | 17.0 | 0.00 | 0.00 | 0.00 | 69 | 1016.0 |
| 20260506230041 | 67 | 257 | 9.0 | 17.0 | 0.00 | 0.00 | 0.00 | 71 | 1015.9 |
| 20260506224552 | 68 | 265 | 8.0 | 15.0 | 0.00 | 0.00 | 0.00 | 67 | 1016.2 |
| 20260506223037 | 68 | 205 | 6.0 | 13.0 | 0.00 | 0.00 | 0.00 | 67 | 1016.3 |
| 20260506221546 | 68 | 298 | 4.0 | 15.0 | 0.00 | 0.00 | 0.00 | 67 | 1016.5 |
| 20260506220044 | 69 | 281 | 5.0 | 12.0 | 0.00 | 0.00 | 0.00 | 65 | 1016.7 |
| 20260506214537 | 68 | 273 | 5.0 | 14.0 | 0.00 | 0.00 | 0.00 | 66 | 1016.8 |
| 20260506213040 | 68 | 263 | 7.0 | 15.0 | 0.00 | 0.00 | 0.00 | 67 | 1016.9 |
| 20260506211550 | 68 | 259 | 7.0 | 15.0 | 0.00 | 0.00 | 0.00 | 65 | 1017.0 |
| 20260506210041 | 68 | 322 | 8.0 | 14.0 | 0.00 | 0.00 | 0.00 | 66 | 1017.1 |
| 20260506204540 | 68 | 265 | 8.0 | 15.0 | 0.00 | 0.00 | 0.00 | 66 | 1017.1 |
| 20260506203037 | 67 | 264 | 8.0 | 14.0 | 0.00 | 0.00 | 0.00 | 67 | 1017.1 |
| 20260506201537 | 67 | 265 | 7.0 | 17.0 | 0.00 | 0.00 | 0.00 | 68 | 1017.2 |
| 20260506200041 | 67 | 284 | 10.0 | 15.0 | 0.00 | 0.00 | 0.00 | 68 | 1017.2 |
| 20260506194544 | 68 | 282 | 8.0 | 14.0 | 0.00 | 0.00 | 0.00 | 66 | 1017.5 |
| 20260506193043 | 66 | 288 | 9.0 | 14.0 | 0.00 | 0.00 | 0.00 | 67 | 1017.6 |
| 20260506191544 | 67 | 274 | 8.0 | 14.0 | 0.00 | 0.00 | 0.00 | 66 | 1017.6 |
| 20260506190038 | 67 | 261 | 8.0 | 14.0 | 0.00 | 0.00 | 0.00 | 65 | 1017.8 |
| 20260506184545 | 67 | 265 | 6.0 | 13.0 | 0.00 | 0.00 | 0.00 | 66 | 1017.9 |
| 20260506183042 | 67 | 265 | 5.0 | 13.0 | 0.00 | 0.00 | 0.00 | 66 | 1018.0 |
| 20260506181552 | 66 | 314 | 7.0 | 14.0 | 0.00 | 0.00 | 0.00 | 65 | 1018.1 |
| 20260506180049 | 66 | 272 | 7.0 | 13.0 | 0.00 | 0.00 | 0.00 | 67 | 1018.1 |
| 20260506174545 | 67 | 331 | 7.0 | 12.0 | 0.00 | 0.00 | 0.00 | 64 | 1018.2 |
| 20260506173047 | 66 | 287 | 5.0 | 12.0 | 0.00 | 0.00 | 0.00 | 65 | 1018.3 |
| 20260506171551 | 66 | 265 | 4.0 | 9.0 | 0.00 | 0.00 | 0.00 | 64 | 1018.3 |
| 20260506170045 | 65 | 311 | 5.0 | 10.0 | 0.00 | 0.00 | 0.00 | 66 | 1018.3 |
| 20260506164538 | 65 | 241 | 3.0 | 10.0 | 0.00 | 0.00 | 0.00 | 66 | 1018.2 |
| 20260506163037 | 65 | 273 | 2.0 | 10.0 | 0.00 | 0.00 | 0.00 | 65 | 1018.3 |
| 20260506161537 | 64 | 0 | 1.0 | 9.0 | 0.00 | 0.00 | 0.00 | 67 | 1018.2 |
| 20260506160041 | 64 | 32 | 2.0 | 8.0 | 0.00 | 0.00 | 0.00 | 68 | 1018.2 |
| 20260506154540 | 64 | 254 | 2.0 | 8.0 | 0.00 | 0.00 | 0.00 | 67 | 1018.4 |
| 20260506153038 | 63 | 16 | 1.0 | 5.0 | 0.00 | 0.00 | 0.00 | 69 | 1018.3 |
| 20260506151539 | 62 | 0 | 0.0 | 4.0 | 0.00 | 0.00 | 0.00 | 71 | 1018.4 |
| 20260506150038 | 60 | 118 | 2.0 | 4.0 | 0.00 | 0.00 | 0.00 | 72 | 1018.5 |
| 20260506144541 | 59 | 97 | 2.0 | 6.0 | 0.00 | 0.01 | 0.00 | 75 | 1018.3 |
| 20260506143036 | 58 | 103 | 3.0 | 6.0 | 0.00 | 0.01 | 0.00 | 77 | 1018.5 |
| 20260506141543 | 57 | 106 | 3.0 | 6.0 | 0.00 | 0.01 | 0.00 | 79 | 1018.3 |
| 20260506140039 | 56 | 107 | 2.0 | 4.0 | 0.00 | 0.01 | 0.00 | 81 | 1018.3 |
| 20260506134538 | 55 | 69 | 1.0 | 5.0 | 0.00 | 0.04 | 0.00 | 83 | 1018.2 |
| 20260506133039 | 55 | 115 | 1.0 | 4.0 | 0.00 | 0.04 | 0.00 | 84 | 1018.0 |
| 20260506131552 | 55 | 129 | 2.0 | 4.0 | 0.00 | 0.04 | 0.00 | 83 | 1017.9 |
| 20260506130041 | 55 | 116 | 1.0 | 3.0 | 0.00 | 0.04 | 0.00 | 83 | 1017.7 |
| 20260506124546 | 55 | 88 | 2.0 | 3.0 | 0.00 | 0.04 | 0.00 | 84 | 1017.6 |
| 20260506123041 | 55 | 57 | 2.0 | 4.0 | 0.00 | 0.04 | 0.00 | 83 | 1017.6 |
| 20260506121541 | 55 | 117 | 2.0 | 6.0 | 0.00 | 0.04 | 0.00 | 84 | 1017.4 |